• în România
  • Lista ţărilor
  • Pe 7 zile
  • Temperatura apei
  • Hartă satelitară
  • Meteo pe hartă
  • Widget-uri
  • user-avatar
    Intrare

    Meteo pe oră la Wiktoria

    Astăzi, 26 Iunie, Luni

    Timp Temperatura Precipitaţii Vânt Presiune Umiditate
    00:00 +6°C° 0 mm 1 m/s 753 mmHg 99%
    01:00 +5°C° 0 mm 1 m/s 753 mmHg 99%
    02:00 +4°C° 0 mm 0 m/s 753 mmHg 99%
    03:00 +3°C° 0 mm 0 m/s 753 mmHg 99%
    04:00 +3°C° 0 mm 0 m/s 753 mmHg 99%
    05:00 +2°C° 0 mm 0 m/s 754 mmHg 99%
    06:00 +2°C° 0 mm 0 m/s 754 mmHg 99%
    07:00 +1°C° 0 mm 0 m/s 754 mmHg 99%
    08:00 +4°C° 0 mm 0 m/s 755 mmHg 94%
    09:00 +7°C° 0 mm 0 m/s 755 mmHg 89%
    10:00 +9°C° 0 mm 0 m/s 756 mmHg 83%
    11:00 +11°C° 0 mm 0 m/s 756 mmHg 74%
    12:00 +12°C° 0 mm 0 m/s 756 mmHg 65%
    13:00 +14°C° 0 mm 0 m/s 755 mmHg 56%
    14:00 +13°C° 0 mm 0 m/s 756 mmHg 59%
    15:00 +13°C° 0 mm 0 m/s 756 mmHg 62%
    16:00 +12°C° 0 mm 0 m/s 756 mmHg 65%
    17:00 +10°C° 0 mm 0 m/s 756 mmHg 73%
    18:00 +8°C° 0 mm 0 m/s 756 mmHg 81%
    19:00 +6°C° 0 mm 0 m/s 756 mmHg 89%
    20:00 +6°C° 0 mm 0 m/s 757 mmHg 90%
    21:00 +6°C° 0 mm 1 m/s 757 mmHg 91%
    22:00 +6°C° 0 mm 1 m/s 757 mmHg 92%
    23:00 +6°C° 0 mm 1 m/s 757 mmHg 93%

    Mâine, 27 Iunie, Marţi

    Timp Temperatura Precipitaţii Vânt Presiune Umiditate
    00:00 +6°C° 0 mm 1 m/s 757 mmHg 93%
    01:00 +5°C° 0 mm 1 m/s 757 mmHg 94%
    02:00 +5°C° 0 mm 1 m/s 757 mmHg 95%
    03:00 +4°C° 0 mm 1 m/s 757 mmHg 96%
    04:00 +4°C° 0 mm 1 m/s 757 mmHg 97%
    05:00 +4°C° 0 mm 1 m/s 757 mmHg 97%
    06:00 +4°C° 0 mm 1 m/s 757 mmHg 97%
    07:00 +4°C° 0 mm 1 m/s 757 mmHg 97%
    08:00 +5°C° 0 mm 1 m/s 757 mmHg 91%
    09:00 +7°C° 0 mm 1 m/s 758 mmHg 85%
    10:00 +8°C° 0 mm 0 m/s 758 mmHg 79%
    11:00 +10°C° 0 mm 1 m/s 757 mmHg 73%
    12:00 +11°C° 0 mm 1 m/s 757 mmHg 68%
    13:00 +12°C° 0 mm 1 m/s 756 mmHg 63%
    14:00 +12°C° 0 mm 1 m/s 756 mmHg 66%
    15:00 +11°C° 0 mm 0 m/s 756 mmHg 69%
    16:00 +10°C° 0 mm 0 m/s 756 mmHg 72%
    17:00 +9°C° 0 mm 0 m/s 756 mmHg 78%
    18:00 +9°C° 0 mm 1 m/s 756 mmHg 84%
    19:00 +7°C° 0 mm 1 m/s 756 mmHg 91%
    20:00 +7°C° 0 mm 1 m/s 756 mmHg 92%
    21:00 +7°C° 0 mm 1 m/s 756 mmHg 94%
    22:00 +6°C° 0 mm 1 m/s 757 mmHg 95%
    23:00 +6°C° 0 mm 1 m/s 756 mmHg 96%

    Poimâine, 28 Iunie, Miercuri

    Timp Temperatura Precipitaţii Vânt Presiune Umiditate
    00:00 +6°C° 0 mm 1 m/s 756 mmHg 96%
    01:00 +6°C° 0 mm 1 m/s 756 mmHg 97%
    02:00 +5°C° 0 mm 0 m/s 756 mmHg 97%
    03:00 +5°C° 0 mm 0 m/s 756 mmHg 97%
    04:00 +5°C° 0 mm 0 m/s 756 mmHg 97%
    05:00 +4°C° 0 mm 0 m/s 756 mmHg 98%
    06:00 +4°C° 0 mm 0 m/s 756 mmHg 98%
    07:00 +4°C° 0 mm 0 m/s 756 mmHg 98%
    08:00 +6°C° 0 mm 0 m/s 756 mmHg 91%
    09:00 +8°C° 0 mm 0 m/s 756 mmHg 85%
    10:00 +9°C° 0 mm 0 m/s 756 mmHg 78%
    11:00 +11°C° 0 mm 0 m/s 756 mmHg 71%
    12:00 +13°C° 0 mm 1 m/s 755 mmHg 65%
    13:00 +15°C° 0 mm 1 m/s 755 mmHg 58%
    14:00 +14°C° 0 mm 1 m/s 754 mmHg 59%
    15:00 +14°C° 0 mm 1 m/s 754 mmHg 61%
    16:00 +13°C° 0 mm 0 m/s 754 mmHg 62%
    17:00 +11°C° 0 mm 0 m/s 754 mmHg 72%
    18:00 +9°C° 0 mm 1 m/s 754 mmHg 83%
    19:00 +6°C° 0 mm 1 m/s 755 mmHg 93%
    20:00 +6°C° 0 mm 1 m/s 755 mmHg 93%
    21:00 +6°C° 0 mm 1 m/s 755 mmHg 93%
    22:00 +7°C° 0 mm 1 m/s 755 mmHg 93%
    23:00 +6°C° 0 mm 1 m/s 755 mmHg 93%

    29 Iunie, Joi

    Timp Temperatura Precipitaţii Vânt Presiune Umiditate
    00:00 +6°C° 0 mm 1 m/s 755 mmHg 93%
    01:00 +6°C° 0 mm 1 m/s 755 mmHg 94%
    02:00 +6°C° 0 mm 1 m/s 754 mmHg 94%
    03:00 +6°C° 0 mm 1 m/s 754 mmHg 94%
    04:00 +6°C° 0 mm 1 m/s 754 mmHg 94%
    05:00 +5°C° 0 mm 1 m/s 754 mmHg 96%
    06:00 +5°C° 0 mm 1 m/s 755 mmHg 97%
    07:00 +4°C° 0 mm 1 m/s 755 mmHg 99%
    08:00 +6°C° 0 mm 1 m/s 755 mmHg 93%
    09:00 +7°C° 0 mm 1 m/s 755 mmHg 87%
    10:00 +8°C° 0 mm 2 m/s 756 mmHg 81%
    11:00 +9°C° 0 mm 2 m/s 755 mmHg 72%
    12:00 +10°C° 0 mm 2 m/s 755 mmHg 64%
    13:00 +12°C° 0 mm 3 m/s 754 mmHg 55%
    14:00 +11°C° 0,1 mm 3 m/s 754 mmHg 60%
    15:00 +11°C° 0,1 mm 3 m/s 754 mmHg 64%
    16:00 +11°C° 0,1 mm 3 m/s 754 mmHg 69%
    17:00 +10°C° 0,1 mm 3 m/s 755 mmHg 74%
    18:00 +8°C° 0,1 mm 2 m/s 755 mmHg 80%
    19:00 +7°C° 0,1 mm 2 m/s 756 mmHg 85%
    20:00 +6°C° 0 mm 2 m/s 757 mmHg 87%
    21:00 +6°C° 0 mm 1 m/s 757 mmHg 89%
    22:00 +5°C° 0 mm 1 m/s 758 mmHg 90%
    23:00 +5°C° 0 mm 1 m/s 758 mmHg 91%

    30 Iunie, Vineri

    Timp Temperatura Precipitaţii Vânt Presiune Umiditate
    00:00 +4°C° 0 mm 1 m/s 758 mmHg 92%
    01:00 +4°C° 0 mm 1 m/s 759 mmHg 94%
    02:00 +3°C° 0 mm 1 m/s 759 mmHg 94%
    03:00 +3°C° 0 mm 1 m/s 759 mmHg 95%
    04:00 +3°C° 0 mm 1 m/s 759 mmHg 95%
    05:00 +3°C° 0 mm 1 m/s 760 mmHg 96%
    06:00 +2°C° 0 mm 1 m/s 760 mmHg 96%
    07:00 +2°C° 0 mm 1 m/s 761 mmHg 97%
    08:00 +4°C° 0 mm 1 m/s 761 mmHg 89%
    09:00 +6°C° 0 mm 1 m/s 761 mmHg 81%
    10:00 +8°C° 0 mm 1 m/s 762 mmHg 72%
    11:00 +9°C° 0 mm 1 m/s 761 mmHg 65%
    12:00 +11°C° 0 mm 1 m/s 761 mmHg 58%
    13:00 +12°C° 0 mm 1 m/s 761 mmHg 52%
    14:00 +12°C° 0 mm 1 m/s 760 mmHg 52%
    15:00 +12°C° 0 mm 1 m/s 760 mmHg 53%
    16:00 +12°C° 0 mm 1 m/s 760 mmHg 54%
    17:00 +9°C° 0 mm 1 m/s 761 mmHg 64%
    18:00 +7°C° 0 mm 1 m/s 761 mmHg 74%
    19:00 +5°C° 0 mm 1 m/s 761 mmHg 84%
    20:00 +4°C° 0 mm 1 m/s 762 mmHg 86%
    21:00 +4°C° 0 mm 1 m/s 762 mmHg 89%
    22:00 +3°C° 0 mm 1 m/s 762 mmHg 92%
    23:00 +3°C° 0 mm 1 m/s 762 mmHg 93%

    1 Iulie, Sâmbătă

    Timp Temperatura Precipitaţii Vânt Presiune Umiditate
    00:00 +2°C° 0 mm 1 m/s 762 mmHg 95%
    01:00 +2°C° 0 mm 1 m/s 762 mmHg 96%
    02:00 +2°C° 0 mm 1 m/s 762 mmHg 97%
    03:00 +1°C° 0 mm 1 m/s 761 mmHg 97%
    04:00 +1°C° 0 mm 1 m/s 761 mmHg 97%
    05:00 +1°C° 0 mm 1 m/s 762 mmHg 97%
    06:00 +1°C° 0 mm 1 m/s 762 mmHg 97%
    07:00 0°C° 0 mm 1 m/s 762 mmHg 98%
    08:00 +3°C° 0 mm 1 m/s 762 mmHg 87%
    09:00 +5°C° 0 mm 1 m/s 762 mmHg 77%
    10:00 +7°C° 0 mm 1 m/s 762 mmHg 66%
    11:00 +9°C° 0 mm 1 m/s 762 mmHg 60%
    12:00 +11°C° 0 mm 1 m/s 761 mmHg 53%
    13:00 +12°C° 0 mm 1 m/s 761 mmHg 46%
    14:00 +12°C° 0 mm 1 m/s 760 mmHg 48%
    15:00 +12°C° 0 mm 1 m/s 760 mmHg 49%
    16:00 +11°C° 0 mm 0 m/s 760 mmHg 51%
    17:00 +9°C° 0 mm 1 m/s 760 mmHg 61%
    18:00 +7°C° 0 mm 1 m/s 760 mmHg 70%
    19:00 +4°C° 0 mm 1 m/s 760 mmHg 80%
    20:00 +4°C° 0 mm 1 m/s 760 mmHg 80%
    21:00 +4°C° 0 mm 1 m/s 760 mmHg 81%
    22:00 +4°C° 0 mm 1 m/s 760 mmHg 81%
    23:00 +4°C° 0 mm 1 m/s 760 mmHg 81%
    Arată mai mult